When you browse on this site, cookies collect data to enhance your experience and personalize the content and advertising you see.
Visit our Privacy Policy to learn more. By continuing to use the site, you agree to this use of cookies and data.
  • In Romania
  • List of Countries
  • For 7 days
  • Water Temperature
  • Satellite Maps
  • Weather Map
  • Weather Widgets
  • user-avatar
    Login

    Hourly Weather Malanje

    Today, 22 March, Friday

    Time Temperature Precipitation Wind Pressure Humidity
    00:00 +22°C° 0 mm 1 mps 664 mmHg 75%
    01:00 +20°C° 0 mm 0 mps 664 mmHg 77%
    02:00 +21°C° 0 mm 1 mps 664 mmHg 82%
    03:00 +21°C° 0 mm 1 mps 664 mmHg 87%
    04:00 +20°C° 0 mm 1 mps 664 mmHg 92%
    05:00 +20°C° 0 mm 1 mps 664 mmHg 91%
    06:00 +21°C° 0 mm 1 mps 665 mmHg 91%
    07:00 +21°C° 0 mm 1 mps 665 mmHg 91%
    08:00 +23°C° 0.5 mm 1 mps 665 mmHg 86%
    09:00 +25°C° 0.5 mm 1 mps 666 mmHg 81%
    10:00 +27°C° 0.5 mm 1 mps 667 mmHg 76%
    11:00 +28°C° 0.3 mm 1 mps 666 mmHg 69%
    12:00 +29°C° 0.3 mm 1 mps 666 mmHg 62%
    13:00 +30°C° 0.3 mm 1 mps 666 mmHg 55%
    14:00 +30°C° 0 mm 1 mps 665 mmHg 59%
    15:00 +29°C° 0 mm 1 mps 665 mmHg 63%
    16:00 +29°C° 0 mm 2 mps 664 mmHg 67%
    17:00 +27°C° 0.1 mm 1 mps 664 mmHg 72%
    18:00 +25°C° 0.1 mm 1 mps 664 mmHg 77%
    19:00 +23°C° 0.1 mm 1 mps 664 mmHg 82%
    20:00 +23°C° 0.1 mm 1 mps 664 mmHg 81%
    21:00 +22°C° 0.1 mm 1 mps 665 mmHg 81%
    22:00 +20°C° 0.1 mm 0 mps 665 mmHg 81%
    23:00 +19°C° 0 mm 0 mps 665 mmHg 82%

    Tomorrow, 23 March, Saturday

    Time Temperature Precipitation Wind Pressure Humidity
    00:00 +21°C° 0 mm 1 mps 664 mmHg 83%
    01:00 +20°C° 0 mm 1 mps 664 mmHg 84%
    02:00 +20°C° 0 mm 1 mps 664 mmHg 84%
    03:00 +18°C° 0 mm 0 mps 663 mmHg 85%
    04:00 +17°C° 0 mm 0 mps 663 mmHg 85%
    05:00 +18°C° 0 mm 0 mps 664 mmHg 85%
    06:00 +18°C° 0 mm 0 mps 664 mmHg 85%
    07:00 +21°C° 0 mm 1 mps 665 mmHg 86%
    08:00 +23°C° 0 mm 1 mps 666 mmHg 78%
    09:00 +26°C° 0 mm 1 mps 666 mmHg 69%
    10:00 +29°C° 0 mm 1 mps 667 mmHg 61%
    11:00 +30°C° 0 mm 1 mps 667 mmHg 57%
    12:00 +32°C° 0 mm 1 mps 666 mmHg 53%
    13:00 +32°C° 0 mm 0 mps 666 mmHg 49%
    14:00 +31°C° 0.2 mm 1 mps 665 mmHg 58%
    15:00 +29°C° 0.2 mm 1 mps 664 mmHg 67%
    16:00 +26°C° 0.2 mm 2 mps 662 mmHg 77%
    17:00 +25°C° 2.1 mm 2 mps 663 mmHg 81%
    18:00 +24°C° 2.1 mm 2 mps 663 mmHg 86%
    19:00 +21°C° 2.1 mm 2 mps 663 mmHg 91%
    20:00 +21°C° 0.7 mm 2 mps 663 mmHg 93%
    21:00 +20°C° 0.7 mm 2 mps 664 mmHg 95%
    22:00 +21°C° 0.7 mm 1 mps 664 mmHg 96%
    23:00 +20°C° 0.4 mm 2 mps 664 mmHg 96%

    Day after tomorrow, 24 March, Sunday

    Time Temperature Precipitation Wind Pressure Humidity
    00:00 +20°C° 0.4 mm 2 mps 664 mmHg 96%
    01:00 +20°C° 0.4 mm 2 mps 664 mmHg 95%
    02:00 +20°C° 0 mm 2 mps 664 mmHg 96%
    03:00 +20°C° 0 mm 2 mps 664 mmHg 96%
    04:00 +20°C° 0 mm 1 mps 664 mmHg 97%
    05:00 +21°C° 0 mm 1 mps 664 mmHg 96%
    06:00 +21°C° 0 mm 1 mps 664 mmHg 96%
    07:00 +21°C° 0 mm 1 mps 665 mmHg 95%
    08:00 +23°C° 0 mm 1 mps 665 mmHg 87%
    09:00 +25°C° 0 mm 1 mps 666 mmHg 78%
    10:00 +27°C° 0 mm 2 mps 667 mmHg 70%
    11:00 +28°C° 0.4 mm 1 mps 666 mmHg 68%
    12:00 +30°C° 0.4 mm 1 mps 666 mmHg 65%
    13:00 +31°C° 0.4 mm 1 mps 665 mmHg 63%
    14:00 +29°C° 1.4 mm 1 mps 664 mmHg 70%
    15:00 +27°C° 1.4 mm 1 mps 664 mmHg 77%
    16:00 +26°C° 1.4 mm 1 mps 663 mmHg 84%
    17:00 +25°C° 1.4 mm 1 mps 663 mmHg 86%
    18:00 +23°C° 1.4 mm 1 mps 664 mmHg 89%
    19:00 +22°C° 1.4 mm 1 mps 664 mmHg 92%
    20:00 +22°C° 1.2 mm 1 mps 664 mmHg 93%
    21:00 +21°C° 1.2 mm 1 mps 665 mmHg 95%
    22:00 +21°C° 1.2 mm 1 mps 665 mmHg 96%
    23:00 +21°C° 0 mm 1 mps 665 mmHg 97%

    25 March, Monday

    Time Temperature Precipitation Wind Pressure Humidity
    00:00 +20°C° 0 mm 1 mps 665 mmHg 98%
    01:00 +19°C° 0 mm 2 mps 664 mmHg 98%
    02:00 +20°C° 0 mm 1 mps 664 mmHg 98%
    03:00 +20°C° 0 mm 1 mps 664 mmHg 98%
    04:00 +20°C° 0 mm 1 mps 664 mmHg 99%
    05:00 +21°C° 0 mm 1 mps 664 mmHg 98%
    06:00 +21°C° 0 mm 1 mps 665 mmHg 98%
    07:00 +21°C° 0 mm 1 mps 665 mmHg 97%
    08:00 +23°C° 0 mm 1 mps 666 mmHg 89%
    09:00 +25°C° 0 mm 1 mps 666 mmHg 81%
    10:00 +27°C° 0 mm 1 mps 667 mmHg 73%
    11:00 +27°C° 1.4 mm 1 mps 666 mmHg 74%
    12:00 +27°C° 1.4 mm 1 mps 665 mmHg 75%
    13:00 +28°C° 1.4 mm 1 mps 664 mmHg 76%
    14:00 +27°C° 0.5 mm 1 mps 664 mmHg 78%
    15:00 +27°C° 0.5 mm 1 mps 663 mmHg 79%
    16:00 +26°C° 0.5 mm 1 mps 663 mmHg 80%
    17:00 +25°C° 0.2 mm 1 mps 663 mmHg 83%
    18:00 +24°C° 0.2 mm 1 mps 664 mmHg 86%
    19:00 +23°C° 0.2 mm 1 mps 664 mmHg 89%
    20:00 +21°C° 0.6 mm 2 mps 665 mmHg 91%
    21:00 +21°C° 0.6 mm 2 mps 665 mmHg 93%
    22:00 +20°C° 0.6 mm 2 mps 666 mmHg 95%
    23:00 +20°C° 0.3 mm 2 mps 665 mmHg 96%

    26 March, Tuesday

    Time Temperature Precipitation Wind Pressure Humidity
    00:00 +19°C° 0.3 mm 2 mps 665 mmHg 97%
    01:00 +20°C° 0.3 mm 1 mps 665 mmHg 98%
    02:00 +20°C° 0.2 mm 1 mps 665 mmHg 98%
    03:00 +20°C° 0.2 mm 1 mps 664 mmHg 98%
    04:00 +18°C° 0.2 mm 0 mps 664 mmHg 98%
    05:00 +18°C° 0 mm 0 mps 665 mmHg 97%
    06:00 +19°C° 0 mm 0 mps 665 mmHg 96%
    07:00 +21°C° 0 mm 1 mps 666 mmHg 95%
    08:00 +22°C° 0 mm 1 mps 666 mmHg 92%
    09:00 +23°C° 0 mm 1 mps 666 mmHg 89%
    10:00 +24°C° 0 mm 1 mps 667 mmHg 86%
    11:00 +25°C° 0 mm 1 mps 666 mmHg 81%
    12:00 +24°C° 0 mm 0 mps 666 mmHg 75%
    13:00 +25°C° 0 mm 0 mps 665 mmHg 70%
    14:00 +26°C° 0 mm 0 mps 665 mmHg 69%
    15:00 +28°C° 0 mm 1 mps 665 mmHg 68%
    16:00 +28°C° 0 mm 1 mps 665 mmHg 68%
    17:00 +26°C° 0.4 mm 1 mps 665 mmHg 75%
    18:00 +22°C° 0.4 mm 0 mps 665 mmHg 82%
    19:00 +20°C° 0.4 mm 0 mps 665 mmHg 89%
    20:00 +20°C° 0.2 mm 0 mps 665 mmHg 90%
    21:00 +21°C° 0.2 mm 1 mps 665 mmHg 91%
    22:00 +21°C° 0.2 mm 1 mps 665 mmHg 92%
    23:00 +20°C° 0 mm 1 mps 665 mmHg 92%

    27 March, Wednesday

    Time Temperature Precipitation Wind Pressure Humidity
    00:00 +18°C° 0 mm 0 mps 665 mmHg 92%
    01:00 +18°C° 0 mm 0 mps 665 mmHg 93%
    02:00 +17°C° 0 mm 0 mps 664 mmHg 93%
    03:00 +17°C° 0 mm 0 mps 664 mmHg 94%
    04:00 +17°C° 0 mm 0 mps 664 mmHg 94%
    05:00 +17°C° 0 mm 0 mps 665 mmHg 93%
    06:00 +18°C° 0 mm 0 mps 665 mmHg 93%
    07:00 +18°C° 0 mm 0 mps 666 mmHg 92%
    08:00 +21°C° 0 mm 0 mps 667 mmHg 83%
    09:00 +24°C° 0 mm 0 mps 668 mmHg 74%
    10:00 +27°C° 0 mm 0 mps 668 mmHg 65%
    11:00 +29°C° 0 mm 0 mps 668 mmHg 60%
    12:00 +30°C° 0 mm 0 mps 667 mmHg 55%
    13:00 +31°C° 0 mm 0 mps 667 mmHg 50%
    14:00 +30°C° 0 mm 0 mps 666 mmHg 51%
    15:00 +30°C° 0 mm 0 mps 666 mmHg 52%
    16:00 +29°C° 0 mm 0 mps 665 mmHg 53%
    17:00 +26°C° 0 mm 0 mps 665 mmHg 59%
    18:00 +24°C° 0 mm 0 mps 665 mmHg 65%
    19:00 +22°C° 0 mm 0 mps 665 mmHg 71%
    20:00 +23°C° 0 mm 1 mps 665 mmHg 73%
    21:00 +23°C° 0 mm 1 mps 666 mmHg 76%
    22:00 +22°C° 0 mm 1 mps 666 mmHg 79%
    23:00 +22°C° 0 mm 1 mps 666 mmHg 82%
    Show more